Weather History for Key West NAF, FL

Change the Weather History Date:

Friday, November 16, 2012

  Actual Average Record
Temperature  
Mean Temperature 72 °F -  
Max Temperature 73 °F 79 °F 86 °F (1999)
Min Temperature 69 °F 70 °F 61 °F (1969)
Cooling Degree Days 7    
Growing Degree Days 22 (Base 50)    
Moisture  
Dew Point 65 °F    
Average Humidity 78    
Maximum Humidity 88    
Minimum Humidity 72    
Precipitation  
Precipitation 0.00 in - - ()
Sea Level Pressure  
Sea Level Pressure 30.06 in    
Wind  
Wind Speed 10 mph (NNE)    
Max Wind Speed 14 mph    
Max Gust Speed 17 mph    
Visibility 10 miles    
Events      
Averages and records for this station are not official NWS values.
T = Trace of Precipitation, MM = Missing Value Source: NWS Daily Summary

Daily Weather History Graph

Daily Weather History Graph

Search for Another Location

Airport:

Trip Planner

Search our weather history database for the weather conditions in past years. The results will help you decide how hot, cold, wet, or windy it might be!

Date:

Astronomy

Nov. 16, 2012 Rise Set
Actual Time 6:43 AM EST 5:39 PM EST
Civil Twilight 6:19 AM EST 6:03 PM EST
Nautical Twilight 5:52 AM EST 6:30 PM EST
Astronomical Twilight 5:24 AM EST 6:58 PM EST
Moon 9:31 AM EST (11/16) 8:41 PM EST (11/16)
Length of Visible Light 11h 43m
Length of Day
10h 55m
Waxing Crescent, 11% of the Moon is Illuminated
Nov 16
Waxing Crescent
Nov 20
First Quarter
Nov 28
Full
Dec 6
Last Quarter
Dec 13
New

Hourly Weather History & Observations

Time (EST) Temp. Dew Point Humidity Pressure Visibility Wind Dir Wind Speed Gust Speed Precip Events Conditions
12:53 AM - - N/A% 30.06 in 10.0 mi NNW 9.2 mph - N/A   Clear
1:53 AM - - N/A% 30.05 in 10.0 mi North 8.1 mph - N/A   Clear
2:53 AM - - N/A% 30.04 in 10.0 mi North 6.9 mph - N/A   Clear
3:53 AM - - N/A% 30.04 in 10.0 mi North 8.1 mph - N/A   Clear
4:53 AM - - N/A% 30.05 in 10.0 mi NNE 12.7 mph - N/A   Mostly Cloudy
5:38 AM - - N/A% 30.06 in 10.0 mi NNE 8.1 mph - N/A   Scattered Clouds
5:53 AM 71.6 °F 66.0 °F 82% 30.06 in 10.0 mi NNE 11.5 mph - N/A   Partly Cloudy
6:53 AM 71.6 °F 66.0 °F 82% 30.06 in 10.0 mi NE 11.5 mph - N/A   Partly Cloudy
7:53 AM 73.4 °F 64.9 °F 75% 30.08 in 10.0 mi NNE 11.5 mph - N/A   Mostly Cloudy
8:53 AM 73.4 °F 64.9 °F 75% 30.09 in 10.0 mi NNE 10.4 mph - N/A   Scattered Clouds
9:53 AM 73.4 °F 64.9 °F 75% 30.10 in 10.0 mi North 12.7 mph - N/A   Mostly Cloudy
10:53 AM 73.4 °F 64.9 °F 75% 30.10 in 10.0 mi NNE 13.8 mph - N/A   Mostly Cloudy
11:53 AM 73.4 °F 64.0 °F 72% 30.08 in 10.0 mi NNE 13.8 mph - N/A   Mostly Cloudy
12:53 PM 73.4 °F 64.9 °F 75% 30.06 in 10.0 mi North 12.7 mph - N/A   Mostly Cloudy
1:53 PM 73.4 °F 64.9 °F 75% 30.04 in 10.0 mi NE 11.5 mph 17.3 mph N/A   Scattered Clouds
2:53 PM 73.4 °F 64.9 °F 75% 30.03 in 10.0 mi North 11.5 mph - N/A   Scattered Clouds
3:53 PM 73.4 °F 64.9 °F 75% 30.03 in 10.0 mi North 12.7 mph - N/A   Scattered Clouds
4:53 PM 73.4 °F 64.9 °F 75% 30.03 in 10.0 mi North 9.2 mph - N/A   Mostly Cloudy
5:53 PM 71.6 °F 64.9 °F 79% 30.04 in 10.0 mi North 8.1 mph - N/A   Mostly Cloudy
6:53 PM 71.6 °F 64.9 °F 79% 30.04 in 10.0 mi North 10.4 mph - N/A   Mostly Cloudy
7:53 PM 71.6 °F 64.9 °F 79% 30.05 in 10.0 mi NNE 8.1 mph - N/A   Mostly Cloudy
8:53 PM 71.6 °F 66.0 °F 82% 30.05 in 10.0 mi NNE 10.4 mph - N/A   Mostly Cloudy
9:53 PM 69.8 °F 66.0 °F 88% 30.06 in 10.0 mi NNE 10.4 mph - N/A   Mostly Cloudy
10:53 PM - - N/A% 30.06 in 10.0 mi NNE 8.1 mph - N/A   Clear
11:53 PM - - N/A% 30.04 in 10.0 mi NNE 11.5 mph - N/A   Clear